THORAD AGENA D DEB, 5736

Orbit data source: Space-Track

THORAD AGENA D DEB, 5736 is space debris in SSO originally from a launch on Wed, 08 Apr 1970 UTC launched from the Air Force Western Test Range (AFWTR). Debris objects in space refer to the collection of defunct objects orbiting the Earth. Examples of debris include non-operational satellites, rocket bodies, and fragments generated from explosions, collisions, or faulty payload assembly.

Loading next visibility...
Identifier
5736, 1970-025MH
Orbit
SSO
Country
Flag of USUS
Related business
Manufacturer
Unknown
Mission
Spacecraft
Bus & Motor
Unknown
Mass
Unknown
Launch date (UTC)
1970-04-08 (56 years ago)
Launch vehicle
Unknown
Launch site
Air Force Western Test Range (AFWTR)
Object type
Payload
Rocket body
Debris
Shape & HBR
Unknown shape, 0.1 m
Radar Cross Section
Medium (>0.1 m² and <1 m²)

Expand to show TLE details & history
Last TLE update: 2 days ago

TLE from 2 days ago
0 THORAD AGENA D DEB
1 05736U 70025MH  26207.46607072  .00000405  00000-0  10703-2 0  9996
2 05736 101.4318 202.7452 0225391 154.1769 358.8275 13.14998500698234
Epoch: 2026-07-26T11:11Z
TLE epoch observation values (Epoch: 2026-07-26T11:11:08.510Z)
Latitude
26.50881°
Longitude
-83.44538°
Altitude
1,036.014 km
Speed
7.418 km/s
True Right ascension
01h 54m 00s
True Declination
26° 22' 37"
Sunlit
Object was in daylight at epoch
Visualization orbit readout
Latitude
Unknown
Longitude
Unknown
Altitude
Unknown
Speed
Unknown
Apparent Right ascension
Unknown
Apparent Declination
Unknown
Sunlit
N/A
Visualization observer readout
Local Sidereal Time
14:25:28
Azimuth
Unknown
Elevation
Unknown
Doppler factor
Unknown
Orbital elements
Apogee altitude
1,372.16 km
Perigee altitude
1,030.491 km
Semi-major axis
7,579.463 km
Eccentricity
0.02254
Inclination
101.4318°
RAAN
202.7452°
Arg. of periapsis
154.1769°
True anomaly
358.77312°
Mean anomaly
358.8275°
Eccentric anomaly
358.80047°
Mean motion
3.28916 °/min
Orbital period
109.45 mins
BSTAR
0.0010703

Documentation

Showing up to 5 results
|